Okean-O - Orbit

View from above orbital plane
View from above orbital plane
View from above satellite
View from above satellite

Ground track
Ground track

The orbit data is extracted from the following two-line orbital elements,

1 25860U 99039A   13140.50495211  .00000529  00000-0  86921-4 0  9498
2 25860 097.9877 103.3297 0001100 132.0244 339.6311 14.74588605744271
Epoch (UTC): 20 May 2013 12:07:07
Eccentricity: 0.0001100
inclination: 97.9877°
perigee height: 645 km
apogee height: 647 km
right ascension of ascending node: 103.3297°
argument of perigee: 132.0244°
revolutions per day: 14.74588605
mean anomaly at epoch: 339.6311°
orbit number at epoch: 74427

The dashed part of the orbit path shows where the satellite is in the earth's shadow,  

Developed and maintained by Chris Peat, Heavens-Above GmbH. Please read the updated FAQ before sending e-mail. Imprint. DLR